Weather in Zubayr

Iraq     30°23′43″N   47°41′28″E
temp.,
°C
wind,
m/s
gust,
m/s
humid.,
%
clouds,
%
prec.,
mm/h
press.,
hPa
HPBL,
m
20 april, tue
tue2000:00+31nw4719100 0.0 1009126
03:00+29wnw46218 0.0 100891
06:00+28wnw22236 0.0 101034
09:00+33wsw22177 0.0 1011350
12:00+37ssw111198 0.0 10091300
15:00+39wsw018100 0.0 10071457
18:00+37nw11899 0.0 1007324
21:00+34s331143 0.0 100855
21 april, wed
wed2100:00+31ssw341291 0.0 100960
03:00+30ssw341498 0.0 100960
06:00+29s3315100 0.0 101059
09:00+34sse3311100 0.0 1011423
12:00+39sse34871 0.0 10101284
15:00+41sse547100 0.0 10082355
18:00+38sse66899 0.0 1008386
21:00+34s5712100 0.0 1009135
22 april, thu
thu2200:00+31s5614100 0.0 1009117
03:00+29s4621100 0.0 1010111
06:00+28sse342412 0.0 101088
09:00+34sse33152 0.0 1012429
12:00+39s2295 0.0 10101344
15:00+41sse34613 0.0 10073234
18:00+39se568100 0.0 1007330
21:00+34sse5614100 0.0 1008125
23 april, fri
fri2300:00+32s4516100 0.0 100884
03:00+30s4518100 0.0 100888
06:00+30sw2216100 0.0 100945
09:00+35s22105 0.0 1009362
12:00+40sw11798 0.0 10081758
15:00+41ese1258 0.0 10063080
18:00+40ene22662 0.0 1006732
21:00+35sw5712100 0.0 1007144
24 april, sat
sat2400:00+34sw4512100 0.0 1006100
03:00+32wnw3414100 0.0 100682
06:00+31w2217100 0.0 100748
09:00+35wnw5512100 0.0 1008437
12:00+41nnw34793 0.0 10071317
15:00+42n3364 0.0 10054661
18:00+40ene4474 0.0 1005498
21:00+36wsw23102 0.0 100788